• In Russia
  • List of Countries
  • For 7 days
  • Water Temperature
  • Satellite Maps
  • Weather Map
  • Weather Widgets
  • user-avatar
    Login

    Hourly Weather Csorna

    Today, 17 August, Thursday

    Time Temperature Precipitation Wind Pressure Humidity
    00:00 +21°C° 0 mm 3 mps 754 mmHg 79%
    01:00 +20°C° 0 mm 3 mps 754 mmHg 79%
    02:00 +20°C° 0 mm 2 mps 754 mmHg 81%
    03:00 +19°C° 0 mm 2 mps 754 mmHg 83%
    04:00 +19°C° 0 mm 2 mps 754 mmHg 85%
    05:00 +20°C° 0 mm 2 mps 754 mmHg 80%
    06:00 +21°C° 0 mm 3 mps 754 mmHg 76%
    07:00 +22°C° 0 mm 3 mps 755 mmHg 69%
    08:00 +25°C° 0 mm 3 mps 754 mmHg 61%
    09:00 +27°C° 0 mm 3 mps 754 mmHg 52%
    10:00 +29°C° 0 mm 3 mps 754 mmHg 44%
    11:00 +31°C° 0 mm 2 mps 754 mmHg 39%
    12:00 +32°C° 0 mm 2 mps 754 mmHg 35%
    13:00 +34°C° 0 mm 2 mps 753 mmHg 30%
    14:00 +34°C° 0 mm 2 mps 753 mmHg 29%
    15:00 +35°C° 0 mm 2 mps 753 mmHg 27%
    16:00 +35°C° 0 mm 2 mps 752 mmHg 26%
    17:00 +32°C° 0 mm 2 mps 752 mmHg 29%
    18:00 +30°C° 0 mm 1 mps 752 mmHg 33%
    19:00 +28°C° 0 mm 1 mps 752 mmHg 37%
    20:00 +27°C° 0 mm 1 mps 753 mmHg 40%
    21:00 +26°C° 0 mm 1 mps 753 mmHg 43%
    22:00 +25°C° 0 mm 1 mps 753 mmHg 46%
    23:00 +24°C° 0 mm 1 mps 753 mmHg 47%

    Tomorrow, 18 August, Friday

    Time Temperature Precipitation Wind Pressure Humidity
    00:00 +24°C° 0 mm 1 mps 753 mmHg 49%
    01:00 +23°C° 0 mm 1 mps 753 mmHg 51%
    02:00 +21°C° 0 mm 0 mps 753 mmHg 53%
    03:00 +20°C° 0 mm 0 mps 753 mmHg 54%
    04:00 +20°C° 0 mm 0 mps 753 mmHg 56%
    05:00 +22°C° 0 mm 0 mps 753 mmHg 52%
    06:00 +23°C° 0 mm 0 mps 753 mmHg 49%
    07:00 +24°C° 0 mm 0 mps 753 mmHg 45%
    08:00 +29°C° 0 mm 1 mps 753 mmHg 40%
    09:00 +31°C° 0 mm 1 mps 753 mmHg 35%
    10:00 +33°C° 0 mm 1 mps 753 mmHg 30%
    11:00 +35°C° 0 mm 2 mps 752 mmHg 28%
    12:00 +37°C° 0 mm 2 mps 752 mmHg 25%
    13:00 +38°C° 0 mm 3 mps 752 mmHg 23%
    14:00 +38°C° 0 mm 3 mps 751 mmHg 22%
    15:00 +38°C° 0 mm 3 mps 751 mmHg 21%
    16:00 +38°C° 0 mm 3 mps 750 mmHg 20%
    17:00 +36°C° 0 mm 3 mps 750 mmHg 24%
    18:00 +34°C° 0 mm 3 mps 750 mmHg 28%
    19:00 +31°C° 0 mm 2 mps 749 mmHg 31%
    20:00 +29°C° 0 mm 2 mps 749 mmHg 34%
    21:00 +28°C° 0 mm 2 mps 749 mmHg 36%
    22:00 +27°C° 0 mm 2 mps 749 mmHg 39%
    23:00 +26°C° 0 mm 2 mps 749 mmHg 40%

    Day after tomorrow, 19 August, Saturday

    Time Temperature Precipitation Wind Pressure Humidity
    00:00 +26°C° 0 mm 3 mps 749 mmHg 42%
    01:00 +25°C° 0 mm 3 mps 749 mmHg 43%
    02:00 +24°C° 0 mm 3 mps 749 mmHg 47%
    03:00 +24°C° 0 mm 3 mps 750 mmHg 51%
    04:00 +23°C° 0 mm 4 mps 750 mmHg 55%
    05:00 +23°C° 0 mm 5 mps 750 mmHg 56%
    06:00 +24°C° 0 mm 6 mps 750 mmHg 58%
    07:00 +24°C° 0 mm 7 mps 751 mmHg 60%
    08:00 +26°C° 0 mm 7 mps 751 mmHg 55%
    09:00 +27°C° 0 mm 8 mps 751 mmHg 51%
    10:00 +28°C° 0 mm 8 mps 752 mmHg 47%
    11:00 +27°C° 0 mm 8 mps 752 mmHg 49%
    12:00 +27°C° 0 mm 8 mps 752 mmHg 50%
    13:00 +26°C° 0 mm 9 mps 752 mmHg 52%
    14:00 +24°C° 0 mm 8 mps 752 mmHg 55%
    15:00 +24°C° 0 mm 8 mps 752 mmHg 58%
    16:00 +23°C° 0 mm 8 mps 752 mmHg 60%
    17:00 +22°C° 0.3 mm 7 mps 752 mmHg 65%
    18:00 +21°C° 0.3 mm 7 mps 752 mmHg 70%
    19:00 +20°C° 0.3 mm 6 mps 753 mmHg 75%
    20:00 +19°C° 0.8 mm 5 mps 753 mmHg 79%
    21:00 +19°C° 0.8 mm 5 mps 753 mmHg 82%
    22:00 +18°C° 0.8 mm 4 mps 753 mmHg 86%
    23:00 +18°C° 0 mm 4 mps 753 mmHg 85%

    20 August, Sunday

    Time Temperature Precipitation Wind Pressure Humidity
    00:00 +18°C° 0 mm 4 mps 753 mmHg 85%
    01:00 +18°C° 0 mm 4 mps 753 mmHg 84%
    02:00 +18°C° 0 mm 4 mps 753 mmHg 84%
    03:00 +18°C° 0 mm 4 mps 753 mmHg 83%
    04:00 +17°C° 0 mm 5 mps 753 mmHg 82%
    05:00 +17°C° 0.1 mm 5 mps 753 mmHg 78%
    06:00 +17°C° 0.1 mm 5 mps 754 mmHg 74%
    07:00 +17°C° 0.1 mm 6 mps 754 mmHg 71%
    08:00 +20°C° 0 mm 6 mps 754 mmHg 62%
    09:00 +22°C° 0 mm 7 mps 754 mmHg 53%
    10:00 +23°C° 0 mm 7 mps 754 mmHg 44%
    11:00 +24°C° 0 mm 7 mps 754 mmHg 40%
    12:00 +26°C° 0 mm 7 mps 754 mmHg 36%
    13:00 +28°C° 0 mm 7 mps 753 mmHg 32%
    14:00 +28°C° 0 mm 7 mps 753 mmHg 32%
    15:00 +27°C° 0 mm 6 mps 753 mmHg 32%
    16:00 +27°C° 0 mm 6 mps 753 mmHg 31%
    17:00 +26°C° 0 mm 5 mps 754 mmHg 35%
    18:00 +23°C° 0 mm 5 mps 754 mmHg 39%
    19:00 +22°C° 0 mm 4 mps 754 mmHg 42%
    20:00 +21°C° 0 mm 4 mps 755 mmHg 47%
    21:00 +20°C° 0 mm 4 mps 755 mmHg 51%
    22:00 +19°C° 0 mm 4 mps 755 mmHg 55%
    23:00 +18°C° 0 mm 4 mps 755 mmHg 57%

    21 August, Monday

    Time Temperature Precipitation Wind Pressure Humidity
    00:00 +17°C° 0 mm 4 mps 756 mmHg 59%
    01:00 +17°C° 0 mm 4 mps 756 mmHg 61%
    02:00 +15°C° 0 mm 4 mps 756 mmHg 63%
    03:00 +15°C° 0 mm 4 mps 755 mmHg 64%
    04:00 +14°C° 0 mm 4 mps 755 mmHg 65%
    05:00 +15°C° 0 mm 5 mps 756 mmHg 62%
    06:00 +16°C° 0 mm 6 mps 756 mmHg 58%
    07:00 +17°C° 0 mm 6 mps 756 mmHg 55%
    08:00 +20°C° 0 mm 6 mps 756 mmHg 50%
    09:00 +21°C° 0 mm 7 mps 756 mmHg 45%
    10:00 +23°C° 0 mm 7 mps 756 mmHg 39%
    11:00 +24°C° 0 mm 7 mps 755 mmHg 37%
    12:00 +26°C° 0 mm 6 mps 755 mmHg 35%
    13:00 +27°C° 0 mm 6 mps 754 mmHg 32%
    14:00 +27°C° 0 mm 6 mps 754 mmHg 32%
    15:00 +27°C° 0 mm 6 mps 754 mmHg 33%
    16:00 +27°C° 0 mm 6 mps 754 mmHg 33%
    17:00 +25°C° 0 mm 5 mps 754 mmHg 38%
    18:00 +22°C° 0 mm 4 mps 754 mmHg 43%
    19:00 +21°C° 0 mm 3 mps 754 mmHg 48%
    20:00 +20°C° 0 mm 3 mps 754 mmHg 51%
    21:00 +19°C° 0 mm 2 mps 754 mmHg 55%
    22:00 +18°C° 0 mm 2 mps 754 mmHg 58%
    23:00 +17°C° 0 mm 2 mps 754 mmHg 60%

    22 August, Tuesday

    Time Temperature Precipitation Wind Pressure Humidity
    00:00 +17°C° 0 mm 2 mps 754 mmHg 62%
    01:00 +16°C° 0 mm 1 mps 754 mmHg 64%
    02:00 +16°C° 0 mm 1 mps 754 mmHg 65%
    03:00 +16°C° 0 mm 1 mps 754 mmHg 66%
    04:00 +15°C° 0 mm 1 mps 754 mmHg 67%
    05:00 +18°C° 0 mm 1 mps 754 mmHg 62%
    06:00 +19°C° 0 mm 1 mps 754 mmHg 57%
    07:00 +21°C° 0 mm 1 mps 754 mmHg 52%
    08:00 +23°C° 0 mm 2 mps 753 mmHg 46%
    09:00 +25°C° 0 mm 2 mps 753 mmHg 40%
    10:00 +27°C° 0 mm 3 mps 753 mmHg 34%
    11:00 +28°C° 0 mm 3 mps 752 mmHg 32%
    12:00 +29°C° 0 mm 3 mps 752 mmHg 31%
    13:00 +30°C° 0 mm 3 mps 751 mmHg 29%
    14:00 +31°C° 0 mm 3 mps 750 mmHg 28%
    15:00 +31°C° 0 mm 3 mps 750 mmHg 28%
    16:00 +33°C° 0 mm 3 mps 749 mmHg 27%
    17:00 +30°C° 0 mm 3 mps 749 mmHg 31%
    18:00 +28°C° 0 mm 3 mps 749 mmHg 35%
    19:00 +26°C° 0 mm 3 mps 749 mmHg 39%
    20:00 +25°C° 0 mm 3 mps 749 mmHg 42%
    21:00 +24°C° 0 mm 3 mps 749 mmHg 45%
    22:00 +22°C° 0 mm 3 mps 749 mmHg 48%
    23:00 +21°C° 0 mm 3 mps 749 mmHg 50%
    Show more